When you browse on this site, cookies collect data to enhance your experience and personalize the content and advertising you see.
Visit our Privacy Policy to learn more. By continuing to use the site, you agree to this use of cookies and data.
  • In Latvia
  • List of Countries
  • For 7 days
  • Water Temperature
  • Satellite Maps
  • Weather Map
  • Weather Widgets
  • user-avatar
    Login

    Hourly Weather Algiers

    Today, 20 July, Saturday

    Time Temperature Precipitation Wind Pressure Humidity
    00:00 +30°C° 0 mm 7 mps 746 mmHg 43%
    01:00 +32°C° 0 mm 6 mps 746 mmHg 42%
    02:00 +32°C° 0 mm 6 mps 746 mmHg 41%
    03:00 +32°C° 0 mm 5 mps 745 mmHg 40%
    04:00 +32°C° 0.1 mm 5 mps 745 mmHg 40%
    05:00 +32°C° 0.1 mm 5 mps 746 mmHg 40%
    06:00 +32°C° 0.1 mm 5 mps 746 mmHg 40%
    07:00 +34°C° 0 mm 5 mps 746 mmHg 36%
    08:00 +36°C° 0 mm 5 mps 747 mmHg 32%
    09:00 +39°C° 0 mm 5 mps 747 mmHg 28%
    10:00 +39°C° 0 mm 5 mps 747 mmHg 29%
    11:00 +40°C° 0 mm 6 mps 747 mmHg 30%
    12:00 +40°C° 0 mm 6 mps 747 mmHg 31%
    13:00 +39°C° 0 mm 7 mps 746 mmHg 33%
    14:00 +39°C° 0 mm 8 mps 746 mmHg 35%
    15:00 +38°C° 0 mm 9 mps 746 mmHg 38%
    16:00 +38°C° 0 mm 8 mps 746 mmHg 37%
    17:00 +36°C° 0 mm 7 mps 746 mmHg 36%
    18:00 +36°C° 0 mm 7 mps 746 mmHg 35%
    19:00 +35°C° 0 mm 6 mps 747 mmHg 38%
    20:00 +34°C° 0 mm 5 mps 747 mmHg 41%
    21:00 +33°C° 0 mm 3 mps 748 mmHg 44%
    22:00 +33°C° 0 mm 3 mps 748 mmHg 46%
    23:00 +31°C° 0 mm 3 mps 748 mmHg 48%

    Tomorrow, 21 July, Sunday

    Time Temperature Precipitation Wind Pressure Humidity
    00:00 +31°C° 0 mm 3 mps 748 mmHg 49%
    01:00 +30°C° 0 mm 3 mps 748 mmHg 51%
    02:00 +30°C° 0 mm 2 mps 748 mmHg 53%
    03:00 +29°C° 0 mm 2 mps 748 mmHg 55%
    04:00 +29°C° 0 mm 2 mps 748 mmHg 55%
    05:00 +30°C° 0 mm 2 mps 748 mmHg 55%
    06:00 +30°C° 0 mm 2 mps 749 mmHg 55%
    07:00 +31°C° 0 mm 3 mps 749 mmHg 54%
    08:00 +31°C° 0 mm 3 mps 749 mmHg 53%
    09:00 +33°C° 0 mm 3 mps 750 mmHg 52%
    10:00 +33°C° 0 mm 4 mps 750 mmHg 53%
    11:00 +34°C° 0 mm 4 mps 750 mmHg 53%
    12:00 +34°C° 0 mm 5 mps 750 mmHg 54%
    13:00 +34°C° 0 mm 6 mps 749 mmHg 54%
    14:00 +34°C° 0 mm 6 mps 749 mmHg 53%
    15:00 +33°C° 0 mm 7 mps 749 mmHg 53%
    16:00 +33°C° 0 mm 7 mps 749 mmHg 52%
    17:00 +33°C° 0 mm 7 mps 749 mmHg 52%
    18:00 +32°C° 0 mm 7 mps 749 mmHg 51%
    19:00 +30°C° 0 mm 7 mps 749 mmHg 54%
    20:00 +30°C° 0 mm 6 mps 750 mmHg 57%
    21:00 +29°C° 0 mm 6 mps 750 mmHg 60%
    22:00 +29°C° 0 mm 5 mps 750 mmHg 61%
    23:00 +28°C° 0 mm 5 mps 750 mmHg 62%

    Day after tomorrow, 22 July, Monday

    Time Temperature Precipitation Wind Pressure Humidity
    00:00 +28°C° 0 mm 4 mps 750 mmHg 63%
    01:00 +28°C° 0 mm 4 mps 750 mmHg 63%
    02:00 +28°C° 0 mm 4 mps 750 mmHg 64%
    03:00 +27°C° 0 mm 4 mps 750 mmHg 65%
    04:00 +27°C° 0 mm 4 mps 750 mmHg 65%
    05:00 +27°C° 0 mm 4 mps 750 mmHg 66%
    06:00 +28°C° 0 mm 4 mps 750 mmHg 66%
    07:00 +29°C° 0 mm 4 mps 750 mmHg 61%
    08:00 +30°C° 0 mm 5 mps 750 mmHg 56%
    09:00 +32°C° 0 mm 6 mps 751 mmHg 51%
    10:00 +33°C° 0 mm 6 mps 751 mmHg 51%
    11:00 +33°C° 0 mm 7 mps 750 mmHg 52%
    12:00 +34°C° 0 mm 7 mps 750 mmHg 52%
    13:00 +33°C° 0 mm 7 mps 750 mmHg 53%
    14:00 +33°C° 0 mm 7 mps 750 mmHg 53%
    15:00 +33°C° 0 mm 7 mps 749 mmHg 54%
    16:00 +32°C° 0 mm 7 mps 749 mmHg 55%
    17:00 +32°C° 0 mm 7 mps 749 mmHg 56%
    18:00 +30°C° 0 mm 6 mps 749 mmHg 57%
    19:00 +30°C° 0 mm 6 mps 749 mmHg 59%
    20:00 +29°C° 0 mm 6 mps 749 mmHg 60%
    21:00 +29°C° 0 mm 5 mps 749 mmHg 62%
    22:00 +29°C° 0 mm 5 mps 749 mmHg 62%
    23:00 +29°C° 0 mm 4 mps 749 mmHg 61%

    23 July, Tuesday

    Time Temperature Precipitation Wind Pressure Humidity
    00:00 +29°C° 0 mm 4 mps 749 mmHg 61%
    01:00 +29°C° 0 mm 4 mps 749 mmHg 61%
    02:00 +28°C° 0 mm 4 mps 749 mmHg 61%
    03:00 +28°C° 0 mm 4 mps 748 mmHg 60%
    04:00 +29°C° 0 mm 3 mps 748 mmHg 59%
    05:00 +29°C° 0 mm 3 mps 748 mmHg 58%
    06:00 +29°C° 0 mm 2 mps 748 mmHg 57%
    07:00 +30°C° 0 mm 3 mps 748 mmHg 52%
    08:00 +33°C° 0 mm 3 mps 749 mmHg 48%
    09:00 +34°C° 0 mm 4 mps 749 mmHg 43%
    10:00 +35°C° 0 mm 4 mps 748 mmHg 44%
    11:00 +35°C° 0 mm 5 mps 748 mmHg 44%
    12:00 +35°C° 0 mm 5 mps 748 mmHg 44%
    13:00 +35°C° 0 mm 5 mps 748 mmHg 45%
    14:00 +35°C° 0 mm 6 mps 747 mmHg 45%
    15:00 +35°C° 0 mm 6 mps 747 mmHg 45%
    16:00 +34°C° 0 mm 6 mps 747 mmHg 47%
    17:00 +33°C° 0 mm 6 mps 747 mmHg 49%
    18:00 +33°C° 0 mm 6 mps 747 mmHg 51%
    19:00 +32°C° 0 mm 5 mps 747 mmHg 53%
    20:00 +30°C° 0 mm 5 mps 747 mmHg 55%
    21:00 +30°C° 0 mm 4 mps 747 mmHg 57%
    22:00 +29°C° 0 mm 4 mps 747 mmHg 58%
    23:00 +29°C° 0 mm 3 mps 747 mmHg 59%

    24 July, Wednesday

    Time Temperature Precipitation Wind Pressure Humidity
    00:00 +29°C° 0 mm 3 mps 747 mmHg 60%
    01:00 +29°C° 0 mm 3 mps 747 mmHg 61%
    02:00 +28°C° 0 mm 3 mps 747 mmHg 61%
    03:00 +28°C° 0 mm 3 mps 746 mmHg 62%
    04:00 +28°C° 0 mm 3 mps 747 mmHg 61%
    05:00 +28°C° 0 mm 3 mps 747 mmHg 61%
    06:00 +29°C° 0 mm 3 mps 747 mmHg 61%
    07:00 +30°C° 0 mm 3 mps 747 mmHg 58%
    08:00 +32°C° 0 mm 4 mps 747 mmHg 55%
    09:00 +33°C° 0 mm 4 mps 748 mmHg 52%
    10:00 +33°C° 0 mm 5 mps 747 mmHg 51%
    11:00 +33°C° 0 mm 5 mps 747 mmHg 51%
    12:00 +34°C° 0 mm 6 mps 747 mmHg 50%
    13:00 +33°C° 0 mm 6 mps 747 mmHg 50%
    14:00 +33°C° 0 mm 6 mps 746 mmHg 50%
    15:00 +33°C° 0 mm 6 mps 746 mmHg 51%
    16:00 +32°C° 0 mm 5 mps 746 mmHg 52%
    17:00 +32°C° 0 mm 5 mps 746 mmHg 54%
    18:00 +30°C° 0 mm 5 mps 746 mmHg 56%
    19:00 +30°C° 0 mm 4 mps 746 mmHg 58%
    20:00 +29°C° 0 mm 4 mps 747 mmHg 61%
    21:00 +28°C° 0 mm 4 mps 747 mmHg 63%
    22:00 +28°C° 0 mm 4 mps 747 mmHg 64%
    23:00 +28°C° 0 mm 3 mps 747 mmHg 64%

    25 July, Thursday

    Time Temperature Precipitation Wind Pressure Humidity
    00:00 +28°C° 0 mm 3 mps 746 mmHg 64%
    01:00 +27°C° 0 mm 3 mps 746 mmHg 64%
    02:00 +27°C° 0 mm 3 mps 746 mmHg 64%
    03:00 +27°C° 0 mm 3 mps 746 mmHg 64%
    04:00 +27°C° 0 mm 3 mps 746 mmHg 63%
    05:00 +27°C° 0 mm 3 mps 746 mmHg 62%
    06:00 +28°C° 0 mm 3 mps 746 mmHg 61%
    07:00 +29°C° 0 mm 3 mps 746 mmHg 58%
    08:00 +30°C° 0 mm 3 mps 747 mmHg 54%
    09:00 +31°C° 0 mm 3 mps 747 mmHg 51%
    10:00 +33°C° 0 mm 4 mps 747 mmHg 51%
    11:00 +33°C° 0 mm 5 mps 747 mmHg 52%
    12:00 +33°C° 0 mm 5 mps 746 mmHg 52%
    13:00 +33°C° 0 mm 5 mps 746 mmHg 53%
    14:00 +33°C° 0 mm 5 mps 746 mmHg 54%
    15:00 +33°C° 0 mm 5 mps 745 mmHg 54%
    16:00 +32°C° 0 mm 4 mps 745 mmHg 56%
    17:00 +30°C° 0 mm 4 mps 745 mmHg 59%
    18:00 +30°C° 0 mm 4 mps 745 mmHg 61%
    19:00 +29°C° 0 mm 3 mps 746 mmHg 64%
    20:00 +29°C° 0 mm 3 mps 746 mmHg 66%
    21:00 +28°C° 0 mm 2 mps 746 mmHg 69%
    22:00 +28°C° 0 mm 2 mps 746 mmHg 68%
    23:00 +28°C° 0 mm 2 mps 746 mmHg 67%
    Show more